Location: Hylvaty SDH
(49.9612°N, 16.4057°E)
Time: 19:59:13
(UTC+01:00)

N. Korean satellite - Visible Passes

Search period start: 09 December 2019 00:00
Search period end: 19 December 2019 00:00
Orbit: 456 x 506 km, 97.2° (Epoch: 09 December)

Date Brightness Start Highest point End Pass type
(mag) Time Alt. Az. Time Alt. Az. Time Alt. Az.
09 Dec 9.6 04:53:43 10° NE 04:56:02 16° E 04:58:19 10° SE visible
09 Dec 6.9 06:26:16 10° N 06:29:40 41° WNW 06:32:58 10° SW visible
09 Dec 7.3 17:05:25 10° S 17:09:04 58° W 17:12:45 10° NNW visible
10 Dec 6.4 06:00:42 10° NNE 06:04:17 84° WNW 06:07:46 10° SSW visible
10 Dec 6.6 16:39:57 10° SSE 16:43:38 72° ENE 16:47:19 10° N visible
10 Dec 10.2 18:16:24 10° WSW 18:17:29 11° W 18:18:33 10° WNW visible
11 Dec 7.5 05:35:21 10° NNE 05:38:48 47° E 05:42:11 10° S visible
11 Dec 9.5 17:49:00 10° SW 17:51:48 20° W 17:54:35 10° NW visible
12 Dec 8.9 05:10:17 10° NE 05:13:14 24° E 05:16:08 10° SSE visible
12 Dec 7.4 06:43:35 10° N 06:46:37 27° WNW 06:49:36 10° SW visible
12 Dec 8.3 17:22:46 10° SSW 17:26:12 36° W 17:29:39 10° NNW visible
13 Dec 9.9 04:45:48 10° ENE 04:47:34 13° E 04:49:19 10° ESE visible
13 Dec 6.6 06:17:51 10° N 06:21:18 51° WNW 06:24:41 10° SSW visible
13 Dec 6.9 16:57:01 10° S 17:00:42 72° WSW 17:04:23 10° NNW visible
14 Dec 6.6 05:52:21 10° NNE 05:55:53 78° E 05:59:21 10° S visible
14 Dec 6.7 16:31:40 10° SSE 16:35:17 57° ENE 16:38:54 10° N visible
14 Dec 10.0 18:07:11 10° WSW 18:09:02 13° W 18:10:53 10° WNW visible
15 Dec 8.0 05:27:04 10° NNE 05:30:23 37° E 05:33:37 10° SSE visible
15 Dec 7.9 07:01:03 10° NNW 07:03:32 18° WNW 07:06:00 10° WSW visible
15 Dec 9.2 17:40:20 10° SSW 17:43:22 24° W 17:46:24 10° NW visible
16 Dec 9.2 05:02:08 10° NE 05:04:46 20° E 05:07:23 10° SE visible
16 Dec 7.2 06:35:06 10° N 06:38:16 32° WNW 06:41:24 10° SW visible
16 Dec 7.9 17:14:16 10° S 17:17:48 45° W 17:21:20 10° NNW visible
17 Dec 10.1 04:38:17 10° ENE 04:39:04 11° E 04:39:52 10° E visible
17 Dec 6.4 06:09:26 10° N 06:12:55 64° WNW 06:16:20 10° SSW visible
17 Dec 6.6 16:48:39 10° SSE 16:52:20 89° WSW 16:55:59 10° NNW visible
18 Dec 7.0 05:43:59 10° NNE 05:47:28 61° E 05:50:52 10° S visible
18 Dec 9.8 17:58:15 10° SW 18:00:33 16° W 18:02:52 10° NW visible
